Back to catalog

ESSA 9

TOS-G

AliveWeatherSSO
NORAD 3764·PAYLOAD·🇺🇸 United States

Launched Feb 26, 1969 from Cape Canaveral Space Force Station

Loading…

Next Passes (next 24 hours)

TLE

FreshSource: Space-Track

Epoch: Sep 14, 2026, 10:18 UTC

1 03764U 69016A   26257.42925334 -.00000050  00000-0 -49731-4 0  9991
2 03764 101.4099 253.3449 0050749 299.3508 222.8289 12.49862770998978

Track ESSA 9 in real time with AllMySat

Download on the App Store